DW5735 Weather Reports


Display with metric or nautical units.
time (UTC)temp
F
wind
direction
speed
MPH
gust
MPH
rain 1hr
in
rain 24hr
in
rain mn
in
humidity
%
barometer
mb
20260905001845 63 46 0.0 0.0 0.00 0.00 0.00 66 1015.1
20260905001607 63 49 0.0 0.0 0.00 0.00 0.00 65 1014.9
20260905001321 64 66 0.0 0.0 0.00 0.00 0.00 63 1015.1
20260905000830 64 71 0.0 0.0 0.00 0.00 0.00 63 1015.1
20260905000333 64 119 0.0 0.0 0.00 0.00 0.00 62 1015.0
20260905000114 63 103 0.0 0.0 0.00 0.00 0.00 62 1014.5
20260904235818 64 104 0.0 0.0 0.00 0.00 0.00 62 1014.9
20260904235331 64 106 0.0 0.0 0.00 0.00 0.00 62 1014.9
20260904234826 64 52 0.0 0.0 0.00 0.00 0.00 61 1014.8
20260904234517 63 101 0.0 0.0 0.00 0.00 0.00 62 1014.4
20260904233825 63 56 0.0 0.0 0.00 0.00 0.00 63 1014.7
20260904233324 63 56 0.0 1.0 0.00 0.00 0.00 63 1014.7
20260904233121 63 61 0.0 1.0 0.00 0.00 0.00 63 1014.4
20260904232837 63 103 0.0 5.0 0.00 0.00 0.00 62 1014.7
20260904232338 63 96 0.0 8.0 0.00 0.00 0.00 64 1014.7
20260904231824 63 36 3.0 6.0 0.00 0.00 0.00 65 1014.8
20260904231355 63 43 0.0 4.0 0.00 0.00 0.00 64 1014.7
20260904230830 64 89 1.0 6.0 0.00 0.00 0.00 64 1014.7
20260904230330 63 57 0.0 6.0 0.00 0.00 0.00 66 1014.7
20260904230114 63 33 4.0 7.0 0.00 0.00 0.00 65 1014.3
20260904225831 64 40 2.0 7.0 0.00 0.00 0.00 65 1014.7
20260904225321 63 44 1.0 8.0 0.00 0.00 0.00 66 1014.6
20260904224829 63 29 1.0 8.0 0.00 0.00 0.00 65 1014.6
20260904224558 63 41 5.0 8.0 0.00 0.00 0.00 66 1014.1
20260904224336 63 27 5.0 8.0 0.00 0.00 0.00 67 1014.5
20260904223851 63 63 1.0 7.0 0.00 0.00 0.00 68 1014.5
20260904223325 63 21 1.0 7.0 0.00 0.00 0.00 67 1014.4
20260904223132 63 62 4.0 7.0 0.00 0.00 0.00 69 1014.0
20260904222822 63 23 4.0 8.0 0.00 0.00 0.00 66 1014.3
20260904222339 63 76 3.0 8.0 0.00 0.00 0.00 65 1014.3
20260904221832 63 72 1.0 9.0 0.00 0.00 0.00 66 1014.3
20260904221600 63 43 2.0 9.0 0.00 0.00 0.00 66 1014.1
20260904221336 63 26 6.0 9.0 0.00 0.00 0.00 66 1014.4
20260904220838 63 22 4.0 8.0 0.00 0.00 0.00 67 1014.3
20260904220344 63 27 0.0 7.0 0.00 0.00 0.00 68 1014.4
20260904215829 63 49 1.0 7.0 0.00 0.00 0.00 67 1014.4
20260904215321 63 33 0.0 0.0 0.00 0.00 0.00 67 1014.3
20260904214831 63 21 0.0 0.0 0.00 0.00 0.00 66 1014.3
20260904214507 63 32 0.0 0.0 0.00 0.00 0.00 67 1014.1
20260904214329 63 34 0.0 0.0 0.00 0.00 0.00 65 1014.3
20260904213834 63 31 0.0 0.0 0.00 0.00 0.00 64 1014.4
20260904213336 63 4 0.0 0.0 0.00 0.00 0.00 64 1014.4
20260904213104 63 30 0.0 0.0 0.00 0.00 0.00 64 1014.1
20260904212819 63 73 0.0 0.0 0.00 0.00 0.00 64 1014.5
20260904212335 64 23 0.0 0.0 0.00 0.00 0.00 63 1014.4
20260904211845 64 325 0.0 0.0 0.00 0.00 0.00 61 1014.3
20260904211601 63 8 0.0 0.0 0.00 0.00 0.00 61 1014.1
20260904211337 64 23 0.0 0.0 0.00 0.00 0.00 62 1014.4
20260904210822 63 351 0.0 0.0 0.00 0.00 0.00 62 1014.3
20260904210325 64 26 0.0 0.0 0.00 0.00 0.00 63 1014.3
20260904210129 63 25 0.0 0.0 0.00 0.00 0.00 63 1014.0
20260904205820 64 25 0.0 0.0 0.00 0.04 0.00 64 1014.3
20260904204826 63 67 0.0 0.0 0.00 0.04 0.00 66 1014.2
20260904204604 62 77 0.0 0.0 0.00 0.01 0.00 66 1014.0
20260904204402 62 77 0.0 0.0 0.00 0.04 0.00 65 1014.3
20260904203837 63 25 0.0 0.0 0.00 0.04 0.00 66 1014.3
20260904203319 62 284 0.0 0.0 0.00 0.04 0.00 65 1014.3
20260904203106 62 270 0.0 0.0 0.00 0.01 0.00 65 1014.0
20260904202831 63 261 0.0 0.0 0.00 0.04 0.00 64 1014.3
20260904202326 63 274 0.0 0.0 0.00 0.04 0.00 64 1014.4
20260904201854 63 239 0.0 0.0 0.00 0.04 0.00 65 1014.4
20260904201603 62 239 0.0 0.0 0.00 0.01 0.00 68 1014.1
20260904201329 62 231 0.0 0.0 0.00 0.04 0.00 68 1014.3
20260904200822 61 250 0.0 0.0 0.00 0.04 0.00 68 1014.3
20260904200318 62 228 0.0 0.0 0.00 0.04 0.00 68 1014.4
20260904200106 61 212 0.0 0.0 0.00 0.01 0.00 69 1014.1
20260904195833 61 207 0.0 0.0 0.00 0.12 0.00 68 1014.4
20260904195344 62 273 0.0 0.0 0.00 0.12 0.00 68 1014.4
20260904194826 61 246 0.0 0.0 0.00 0.12 0.00 71 1014.4
20260904194609 61 350 0.0 0.0 0.00 0.03 0.00 70 1014.2
20260904194333 61 222 0.0 0.0 0.00 0.12 0.00 70 1014.5
20260904193837 60 219 0.0 0.0 0.00 0.12 0.00 72 1014.5
20260904193354 59 218 0.0 0.0 0.00 0.12 0.00 71 1014.5
20260904193125 59 75 0.0 0.0 0.00 0.03 0.00 72 1014.3
20260904192821 59 75 0.0 0.0 0.00 0.12 0.00 72 1014.6
20260904192318 59 21 0.0 0.0 0.00 0.12 0.00 73 1014.6
20260904191818 58 25 0.0 0.0 0.00 0.12 0.00 72 1014.7
20260904191606 58 25 0.0 0.0 0.00 0.03 0.00 72 1014.4
20260904191322 58 23 0.0 0.0 0.00 0.12 0.00 72 1014.6
20260904190831 58 30 0.0 0.0 0.00 0.12 0.00 72 1014.6
20260904190335 58 23 0.0 0.0 0.00 0.12 0.00 74 1014.6
20260904185822 57 28 0.0 0.0 0.00 0.20 0.00 75 1014.7
20260904185405 57 32 0.0 0.0 0.00 0.20 0.00 74 1014.5
20260904184834 57 49 0.0 0.0 0.00 0.20 0.00 77 1014.5
20260904184509 56 46 0.0 0.0 0.00 0.05 0.00 76 1014.2
20260904184330 57 46 0.0 0.0 0.00 0.20 0.00 78 1014.5
20260904183832 57 26 0.0 0.0 0.00 0.20 0.00 77 1014.5
20260904183343 57 343 0.0 0.0 0.00 0.20 0.00 77 1014.4
20260904183052 56 27 0.0 0.0 0.00 0.05 0.00 77 1014.2
20260904182818 57 6 0.0 0.0 0.00 0.20 0.00 78 1014.4
20260904182335 56 15 0.0 0.0 0.00 0.20 0.00 78 1014.4
20260904181831 56 23 0.0 0.0 0.00 0.20 0.00 79 1014.4
20260904181602 56 29 0.0 0.0 0.00 0.05 0.00 79 1014.2
20260904181320 56 29 0.0 0.0 0.00 0.20 0.00 80 1014.4
20260904180335 56 31 0.0 0.0 0.00 0.20 0.00 79 1014.3
20260904180109 55 39 0.0 0.0 0.00 0.05 0.00 80 1014.1
20260904175843 56 39 0.0 0.0 0.00 0.24 0.00 80 1014.3
20260904175318 56 60 0.0 0.0 0.00 0.24 0.00 80 1014.3
20260904174817 56 27 0.0 0.0 0.00 0.24 0.00 81 1014.3
20260904174513 55 22 0.0 0.0 0.00 0.06 0.00 80 1014.1
20260904174334 56 31 0.0 0.0 0.00 0.24 0.00 81 1014.4
20260904173824 56 37 0.0 0.0 0.00 0.24 0.00 82 1014.3
20260904173343 55 16 0.0 0.0 0.00 0.24 0.00 82 1014.4
20260904173103 55 20 0.0 0.0 0.00 0.06 0.00 82 1014.1
20260904172840 55 30 0.0 0.0 0.00 0.24 0.00 82 1014.3
20260904172322 55 48 0.0 0.0 0.00 0.24 0.00 83 1014.3
20260904171834 55 49 0.0 0.0 0.00 0.24 0.00 83 1014.3
20260904171607 54 57 0.0 0.0 0.00 0.06 0.00 84 1014.0
20260904171318 55 43 0.0 0.0 0.00 0.24 0.00 84 1014.2
20260904170817 54 30 0.0 0.0 0.00 0.24 0.00 85 1014.3
20260904170322 54 109 0.0 0.0 0.00 0.24 0.00 86 1014.2
20260904170115 54 87 0.0 0.0 0.00 0.06 0.00 85 1014.0
20260904165826 54 39 0.0 0.0 0.00 0.35 0.00 85 1014.1
20260904165354 54 77 0.0 0.0 0.00 0.35 0.00 86 1014.1
20260904164824 54 61 0.0 0.0 0.00 0.35 0.00 86 1014.1
20260904164321 54 27 0.0 0.0 0.00 0.35 0.00 86 1014.2
20260904163818 54 81 0.0 1.0 0.00 0.35 0.00 86 1014.1
20260904163329 53 78 0.0 1.0 0.00 0.35 0.00 86 1014.1
20260904163142 53 71 0.0 1.0 0.00 0.09 0.00 86 1013.8
20260904162852 53 84 0.0 0.0 0.00 0.35 0.00 86 1014.1
20260904162317 53 31 0.0 0.0 0.00 0.35 0.00 87 1014.1
20260904161837 53 77 0.0 0.0 0.00 0.35 0.00 87 1014.0
20260904161613 53 39 0.0 0.0 0.00 0.09 0.00 87 1013.8
20260904161324 53 66 0.0 0.0 0.00 0.35 0.00 87 1014.1
20260904160818 53 37 0.0 0.0 0.00 0.35 0.00 87 1014.1
20260904160327 53 48 0.0 0.0 0.00 0.35 0.00 87 1014.0
20260904160100 53 37 0.0 0.0 0.00 0.09 0.00 87 1013.7
20260904155845 53 49 0.0 0.0 0.00 0.47 0.00 87 1013.9
20260904155358 53 46 0.0 0.0 0.00 0.47 0.00 87 1013.7
20260904154834 54 34 0.0 0.0 0.00 0.47 0.00 87 1013.7
20260904154615 53 49 0.0 0.0 0.00 0.12 0.00 87 1013.5
20260904154318 53 121 0.0 0.0 0.00 0.47 0.00 86 1013.7
20260904153831 53 107 0.0 0.0 0.00 0.47 0.00 87 1013.7
20260904153329 53 77 0.0 0.0 0.00 0.47 0.00 87 1013.6
20260904153139 52 77 0.0 0.0 0.00 0.12 0.00 87 1013.3
20260904152830 53 91 0.0 0.0 0.00 0.47 0.00 87 1013.5
20260904152333 53 91 0.0 0.0 0.00 0.47 0.00 88 1013.4
20260904151911 52 34 0.0 0.0 0.00 0.47 0.00 88 1013.3
20260904151601 52 34 0.0 0.0 0.00 0.12 0.00 88 1013.1
20260904151329 52 34 0.0 0.0 0.00 0.47 0.00 88 1013.3
20260904150829 52 34 0.0 0.0 0.00 0.47 0.00 89 1013.3
20260904150334 52 54 0.0 0.0 0.00 0.47 0.00 88 1013.3
20260904150055 52 68 0.0 0.0 0.00 0.12 0.00 88 1013.0
20260904145828 52 31 0.0 0.0 0.00 0.51 0.00 88 1013.2
20260904144858 52 56 0.0 0.0 0.00 0.51 0.00 88 1013.2
20260904144614 52 62 0.0 0.0 0.00 0.13 0.00 88 1012.9
20260904144357 52 30 0.0 0.0 0.00 0.51 0.00 89 1013.1
20260904143838 52 30 0.0 0.0 0.00 0.51 0.00 90 1013.0
20260904143327 52 26 0.0 0.0 0.00 0.51 0.00 90 1013.0
20260904142841 52 40 0.0 0.0 0.00 0.51 0.00 89 1013.1
20260904142320 52 56 0.0 0.0 0.00 0.51 0.00 88 1013.0
20260904141827 52 40 0.0 0.0 0.00 0.51 0.00 89 1013.0
20260904141620 51 51 0.0 0.0 0.00 0.13 0.00 89 1012.7
20260904141327 52 37 0.0 1.0 0.00 0.51 0.00 89 1012.8
20260904140826 52 46 0.0 1.0 0.00 0.51 0.00 90 1012.7
20260904140323 52 43 0.0 0.0 0.00 0.51 0.00 90 1012.6
20260904135838 51 47 0.0 0.0 0.00 0.55 0.00 89 1012.5
20260904135319 51 34 0.0 0.0 0.00 0.55 0.00 90 1012.5
20260904134819 51 46 0.0 0.0 0.00 0.55 0.00 90 1012.4
20260904134608 51 40 0.0 0.0 0.00 0.14 0.00 90 1012.2
20260904134343 51 32 0.0 0.0 0.00 0.55 0.00 90 1012.4
20260904133829 51 37 0.0 0.0 0.00 0.55 0.00 90 1012.4
20260904133321 51 56 0.0 0.0 0.00 0.55 0.00 90 1012.4
20260904133110 51 53 0.0 0.0 0.00 0.14 0.00 90 1012.2
20260904132818 51 75 0.0 0.0 0.00 0.55 0.00 90 1012.4
20260904132329 51 41 0.0 0.0 0.00 0.55 0.00 90 1012.4
20260904131827 51 96 0.0 0.0 0.00 0.55 0.00 90 1012.4
20260904131602 51 65 0.0 0.0 0.00 0.14 0.00 90 1012.2
20260904131358 51 48 0.0 0.0 0.00 0.55 0.00 90 1012.3
20260904130851 51 42 0.0 0.0 0.00 0.55 0.00 90 1012.3
20260904130335 51 71 0.0 0.0 0.00 0.55 0.00 91 1012.2
20260904130100 51 60 0.0 0.0 0.00 0.14 0.00 92 1011.9
20260904125831 51 36 0.0 0.0 0.00 0.59 0.00 92 1012.2
20260904125402 51 21 0.0 0.0 0.00 0.59 0.00 91 1012.1
20260904124830 51 105 0.0 0.0 0.00 0.59 0.00 91 1012.1
20260904124619 50 76 0.0 0.0 0.00 0.15 0.00 91 1011.9
20260904124341 51 72 0.0 0.0 0.00 0.59 0.00 91 1012.1
20260904123828 51 75 0.0 0.0 0.00 0.59 0.00 91 1012.2
20260904123327 51 101 0.0 0.0 0.00 0.59 0.00 91 1012.2
20260904123009 50 95 0.0 0.0 0.00 0.15 0.00 91 1012.0
20260904122832 51 107 0.0 0.0 0.00 0.59 0.00 91 1012.3
20260904122325 51 124 0.0 0.0 0.00 0.59 0.00 91 1012.4
20260904121819 51 104 0.0 0.0 0.00 0.59 0.00 91 1012.3
20260904121558 50 76 0.0 0.0 0.00 0.15 0.00 91 1012.0
20260904121316 51 38 0.0 0.0 0.00 0.59 0.00 91 1012.2
20260904120820 51 37 0.0 0.0 0.00 0.59 0.00 91 1012.2
20260904120331 51 77 0.0 0.0 0.00 0.59 0.00 91 1012.1
20260904120107 50 40 0.0 0.0 0.00 0.15 0.00 91 1011.7
20260904115838 51 43 0.0 0.0 0.00 0.75 0.00 91 1011.9
20260904115328 51 41 0.0 0.0 0.00 0.75 0.00 90 1011.8
20260904114816 51 56 0.0 0.0 0.00 0.75 0.00 90 1011.7
20260904114615 50 87 0.0 0.0 0.00 0.19 0.00 90 1011.5
20260904113833 51 80 0.0 0.0 0.00 0.75 0.00 91 1011.7
20260904113323 51 32 0.0 0.0 0.00 0.75 0.00 91 1011.7
20260904113118 51 99 0.0 0.0 0.00 0.19 0.00 91 1011.5
20260904112827 51 12 0.0 0.0 0.00 0.75 0.00 91 1011.7
20260904112345 51 38 0.0 0.0 0.00 0.75 0.00 92 1011.7
20260904111824 51 22 0.0 0.0 0.00 0.75 0.00 92 1011.6
20260904111607 50 49 0.0 0.0 0.00 0.19 0.00 92 1011.2
20260904111323 50 58 0.0 0.0 0.00 0.75 0.00 92 1011.6
20260904110829 50 60 0.0 0.0 0.00 0.75 0.00 92 1011.6
20260904110336 50 50 0.0 0.0 0.00 0.75 0.00 92 1011.5
20260904110100 50 54 0.0 0.0 0.00 0.19 0.00 92 1011.1
20260904105833 50 70 0.0 0.0 0.00 1.42 0.00 92 1011.5
20260904105322 50 60 0.0 0.0 0.00 1.42 0.00 92 1011.6
20260904104857 50 72 0.0 0.0 0.00 1.42 0.00 91 1011.5
20260904104613 50 76 0.0 0.0 0.00 0.36 0.00 91 1011.2
20260904104329 50 49 0.0 0.0 0.00 1.42 0.00 91 1011.6
20260904103819 50 63 0.0 0.0 0.00 1.42 0.00 91 1011.6
20260904103319 50 73 0.0 0.0 0.00 1.42 0.00 91 1011.5
20260904103007 50 79 0.0 0.0 0.00 0.36 0.00 91 1011.2
20260904102828 50 86 0.0 0.0 0.00 1.42 0.00 91 1011.5
20260904102356 50 75 0.0 0.0 0.00 1.42 0.00 91 1011.3
20260904101843 50 27 0.0 0.0 0.00 1.42 0.00 92 1011.3
20260904101505 49 77 0.0 0.0 0.00 0.36 0.00 91 1011.1
20260904101330 50 79 0.0 0.0 0.00 1.42 0.00 91 1011.4
20260904100825 50 73 0.0 0.0 0.00 1.42 0.00 91 1011.3
20260904100336 50 97 0.0 0.0 0.00 1.42 0.00 91 1011.3
20260904100124 49 98 0.0 0.0 0.00 0.36 0.00 91 1010.9
20260904095838 50 97 0.0 0.0 0.00 1.42 0.00 91 1011.2
20260904095317 50 97 0.0 0.0 0.00 1.42 0.00 91 1011.3
20260904094840 50 97 0.0 0.0 0.00 1.42 0.00 91 1011.3
20260904094610 50 97 0.0 0.0 0.00 0.36 0.00 91 1011.0
20260904094355 50 98 0.0 0.0 0.00 1.42 0.00 91 1011.4
20260904093822 50 97 0.0 0.0 0.00 1.42 0.00 91 1011.4
20260904093339 50 98 0.0 0.0 0.00 1.42 0.00 91 1011.3
20260904093001 50 97 0.0 0.0 0.00 0.36 0.00 91 1011.1
20260904092826 51 97 0.0 0.0 0.00 1.42 0.00 91 1011.4
20260904092317 51 93 0.0 0.0 0.00 1.42 0.00 91 1011.5
20260904091842 51 97 0.0 0.0 0.00 1.42 0.00 91 1011.4
20260904091600 50 94 0.0 0.0 0.00 0.36 0.00 91 1011.0
20260904091330 51 79 0.0 0.0 0.00 1.42 0.00 91 1011.4
20260904090820 51 91 0.0 0.0 0.00 1.42 0.00 91 1011.5
20260904090327 51 91 0.0 0.0 0.00 1.42 0.00 91 1011.4
20260904085318 51 88 0.0 0.0 0.00 1.42 0.00 91 1011.5
20260904084823 51 84 0.0 0.0 0.00 1.42 0.00 90 1011.6
20260904084625 50 84 0.0 0.0 0.00 0.36 0.00 90 1011.2
20260904084331 51 89 0.0 0.0 0.00 1.42 0.00 90 1011.6
20260904083847 51 100 0.0 0.0 0.00 1.42 0.00 91 1011.6
20260904083359 51 89 0.0 0.0 0.00 1.42 0.00 91 1011.5
20260904083059 51 89 0.0 0.0 0.00 0.36 0.00 90 1011.1
20260904082830 51 91 0.0 0.0 0.00 1.42 0.00 90 1011.5
20260904082334 51 97 0.0 0.0 0.00 1.42 0.00 90 1011.5
20260904081821 51 92 0.0 0.0 0.00 1.42 0.00 89 1011.6
20260904081511 51 91 0.0 0.0 0.00 0.36 0.00 90 1011.1
20260904081334 51 91 0.0 0.0 0.00 1.42 0.00 90 1011.5
20260904080817 51 91 0.0 0.0 0.00 1.42 0.00 89 1011.4
20260904080342 52 95 0.0 0.0 0.00 1.42 0.00 89 1011.3
20260904080122 51 96 0.0 0.0 0.00 0.36 0.00 89 1010.9
20260904075818 52 68 0.0 0.0 0.00 1.42 0.00 89 1011.3
20260904075326 52 72 0.0 0.0 0.00 1.42 0.00 89 1011.3
20260904074821 52 71 0.0 0.0 0.00 1.42 0.00 89 1011.2
20260904074612 52 71 0.0 0.0 0.00 0.36 0.00 89 1010.7
20260904074324 52 91 0.0 0.0 0.00 1.42 0.00 89 1011.2
20260904073901 52 92 0.0 0.0 0.00 1.42 0.00 89 1011.3
20260904073337 52 86 0.0 0.0 0.00 1.42 0.00 88 1011.3
20260904073054 52 84 0.0 0.0 0.00 0.36 0.00 88 1010.8
20260904072829 53 74 0.0 0.0 0.00 1.42 0.00 88 1011.3
20260904072337 53 72 0.0 0.0 0.00 1.42 0.00 88 1011.2
20260904071829 53 85 0.0 0.0 0.00 1.42 0.00 87 1011.0
20260904071623 52 63 0.0 0.0 0.00 0.36 0.00 87 1010.7
20260904071328 53 49 0.0 0.0 0.00 1.42 0.00 87 1011.0
20260904070834 53 61 0.0 0.0 0.00 1.42 0.00 87 1011.0
20260904070345 53 91 0.0 0.0 0.00 1.42 0.00 87 1011.0
20260904070115 53 91 0.0 0.0 0.00 0.36 0.00 87 1010.5
20260904065827 53 91 0.0 0.0 0.00 1.46 0.36 86 1011.0
20260904065349 53 90 0.0 0.0 0.00 1.46 0.36 86 1010.9
20260904064833 54 91 0.0 0.0 0.00 1.46 0.36 86 1010.8
20260904064332 54 91 0.0 0.0 0.00 1.46 0.36 85 1010.9
20260904063848 54 48 0.0 0.0 0.00 1.46 0.36 86 1010.9
20260904063321 54 60 0.0 0.0 0.00 1.46 0.36 86 1010.9
20260904063032 54 51 0.0 0.0 0.00 0.37 0.36 85 1010.5
20260904062836 54 56 0.0 0.0 0.00 1.46 0.36 85 1011.0
20260904062323 54 46 0.0 0.0 0.00 1.46 0.36 86 1010.9
20260904061833 54 91 0.0 0.0 0.00 1.46 0.36 85 1011.0
20260904061614 54 91 0.0 0.0 0.00 0.37 0.36 86 1010.5
20260904061352 54 16 0.0 0.0 0.00 1.46 0.36 86 1011.0
20260904060824 54 34 0.0 0.0 0.00 1.46 0.36 85 1010.9
20260904060334 54 91 0.0 0.0 0.00 1.46 0.36 85 1011.0
20260904060126 54 92 0.0 0.0 0.00 0.37 0.36 84 1010.4
20260904055821 54 92 0.0 0.0 0.00 1.46 0.36 84 1010.9
20260904055352 55 89 0.0 0.0 0.00 1.46 0.36 84 1010.9
20260904054817 55 108 0.0 0.0 0.00 1.46 0.36 84 1010.9
20260904054553 54 91 0.0 0.0 0.00 0.37 0.36 83 1010.5
20260904054347 55 74 0.0 0.0 0.00 1.46 0.36 83 1010.9
20260904053827 55 39 0.0 0.0 0.00 1.46 0.36 83 1011.0
20260904053354 55 76 0.0 0.0 0.00 1.46 0.36 83 1010.9
20260904053138 55 46 0.0 0.0 0.00 0.37 0.36 82 1010.5
20260904052817 55 91 0.0 0.0 0.00 1.46 0.36 82 1010.9
20260904052340 56 79 0.0 0.0 0.00 1.46 0.36 81 1010.9
20260904051826 56 78 0.0 0.0 0.00 1.46 0.36 80 1010.8
20260904051603 56 67 0.0 0.0 0.00 0.37 0.36 80 1010.3
20260904051337 56 40 0.0 0.0 0.00 1.46 0.36 80 1010.8
20260904050819 56 44 0.0 0.0 0.00 1.46 0.36 80 1010.8
20260904050327 56 66 0.0 0.0 0.00 1.46 0.36 80 1010.8
20260904050118 56 82 0.0 0.0 0.00 0.37 0.36 80 1010.3
20260904045847 56 97 0.0 0.0 0.00 1.46 0.36 79 1010.8
20260904045435 57 112 0.0 0.0 0.00 1.46 0.36 79 1010.8
20260904044905 57 83 0.0 0.0 0.00 1.46 0.36 78 1010.7
20260904044627 56 46 0.0 0.0 0.00 0.37 0.36 78 1010.3
20260904044334 57 95 0.0 0.0 0.00 1.46 0.36 78 1010.8
20260904043821 57 110 0.0 0.0 0.00 1.46 0.36 78 1010.8
20260904043334 57 84 0.0 0.0 0.00 1.46 0.36 79 1010.8
20260904043058 56 99 0.0 0.0 0.00 0.37 0.36 79 1010.3
20260904042833 57 113 0.0 0.0 0.00 1.46 0.36 79 1010.8
20260904042319 56 95 0.0 0.0 0.00 1.46 0.36 80 1010.7
20260904041848 57 109 0.0 0.0 0.00 1.46 0.36 80 1010.8
20260904041606 56 117 0.0 0.0 0.00 0.37 0.36 80 1010.2
20260904041318 57 105 0.0 0.0 0.00 1.46 0.36 80 1010.7
20260904040825 57 97 0.0 0.0 0.00 1.46 0.36 79 1010.7
20260904040338 57 96 0.0 0.0 0.00 1.46 0.36 78 1010.6
20260904040056 57 93 0.0 0.0 0.00 0.37 0.36 77 1010.2
20260904035829 57 82 0.0 0.0 0.00 1.46 0.36 77 1010.6
20260904035329 58 74 0.0 0.0 0.00 1.46 0.36 76 1010.6
20260904034816 58 96 0.0 0.0 0.00 1.46 0.36 75 1010.5
20260904034515 57 111 0.0 0.0 0.00 0.37 0.36 75 1010.0
20260904034340 58 91 0.0 0.0 0.00 1.46 0.36 74 1010.5
20260904033830 58 119 0.0 0.0 0.00 1.46 0.36 74 1010.5
20260904033339 58 95 0.0 0.0 0.00 1.46 0.36 75 1010.6
20260904033058 58 105 0.0 0.0 0.00 0.37 0.36 75 1010.0
20260904032826 58 91 0.0 0.0 0.00 1.46 0.36 75 1010.6
20260904032334 58 81 0.0 0.0 0.00 1.46 0.36 75 1010.5
20260904031818 58 75 0.0 0.0 0.00 1.46 0.36 75 1010.5
20260904031613 58 75 0.0 0.0 0.00 0.37 0.36 75 1009.8
20260904031326 58 106 0.0 0.0 0.00 1.46 0.36 75 1010.3
20260904030837 59 91 0.0 0.0 0.00 1.46 0.36 75 1010.3
20260904030325 59 96 0.0 0.0 0.00 1.46 0.36 74 1010.2
20260904025839 59 57 0.0 0.0 0.00 1.46 0.36 74 1010.2
20260904025322 59 66 0.0 4.0 0.00 1.46 0.36 73 1010.2
20260904024901 59 82 0.0 6.0 0.00 1.46 0.36 72 1010.2
20260904024633 59 73 2.0 6.0 0.00 0.37 0.36 72 1009.6
20260904024330 59 98 4.0 6.0 0.00 1.46 0.36 72 1010.2
20260904023820 60 97 3.0 7.0 0.00 1.46 0.36 70 1010.1
20260904023335 60 117 1.0 5.0 0.00 1.46 0.36 69 1010.1
20260904023104 60 84 0.0 1.0 0.00 0.37 0.36 68 1009.5
20260904022853 60 101 0.0 0.0 0.00 1.46 0.36 67 1010.1
20260904022318 61 96 0.0 0.0 0.00 1.46 0.36 66 1010.1
20260904021857 62 30 0.0 7.0 0.00 1.46 0.36 65 1010.0
20260904021556 62 40 0.0 7.0 0.00 0.37 0.36 66 1009.4
20260904021357 63 26 5.0 7.0 0.00 1.46 0.36 67 1009.9
20260904020824 63 27 1.0 8.0 0.00 1.46 0.36 63 1009.9
20260904020012 63 15 0.0 0.0 0.00 0.37 0.36 64 1009.2
20260904015836 63 23 0.0 0.0 0.00 1.46 0.36 63 1009.8
20260904015340 64 21 0.0 0.0 0.00 1.46 0.36 64 1009.8
20260904014840 64 321 0.0 1.0 0.00 1.46 0.36 64 1009.7
20260904014631 64 340 0.0 4.0 0.00 0.37 0.36 62 1009.0
20260904014322 64 20 0.0 4.0 0.00 1.46 0.36 60 1009.7
20260904013821 64 301 2.0 4.0 0.00 1.46 0.36 62 1009.7
20260904013354 65 246 0.0 0.0 0.00 1.46 0.36 63 1009.7
20260904013106 64 211 0.0 0.0 0.00 0.37 0.36 64 1009.1
20260904012844 65 278 0.0 0.0 0.00 1.46 0.36 61 1009.9
20260904012316 65 252 0.0 0.0 0.00 1.46 0.36 62 1009.9
20260904011822 65 242 0.0 0.0 0.00 1.46 0.36 63 1009.9
20260904011602 64 242 0.0 0.0 0.00 0.37 0.36 62 1009.2
20260904011339 65 236 0.0 0.0 0.00 1.46 0.36 62 1009.8
20260904010817 65 272 0.0 0.0 0.00 1.46 0.36 62 1009.8
20260904010019 64 246 0.0 0.0 0.00 0.37 0.36 66 1009.2
20260904005839 64 242 0.0 0.0 0.00 1.46 0.36 65 1009.8
20260904005317 64 245 0.0 0.0 0.00 1.46 0.36 65 1009.7
20260904004822 64 250 0.0 0.0 0.00 1.46 0.36 64 1009.7
20260904004559 64 264 0.0 0.0 0.00 0.37 0.36 64 1009.1
20260904004330 65 263 0.0 0.0 0.00 1.46 0.36 63 1009.7
20260904003820 65 239 0.0 0.0 0.00 1.46 0.36 62 1009.7
20260904003346 65 40 0.0 0.0 0.00 1.46 0.36 65 1009.7
20260904003051 63 40 0.0 0.0 0.00 0.37 0.36 66 1009.2
20260904002836 63 40 0.0 0.0 0.00 1.46 0.36 66 1009.8
20260904002337 64 40 0.0 0.0 0.00 1.46 0.36 64 1009.8